Location: Bismarck
(46.7731°N, 100.8200°W)
Time: 16:38:41
(UTC-05:00)

Amateur Radio Satellites - All Passes

Search period start: 21 August 2017 16:08
Search period end: 22 August 2017 16:08
Location: Bismarck, 46.7731°N, 100.8200°W

Satellite Date Start Highest point End Downlink Frequencies (MHz)
Time Altitude Azimuth
YUBILEINY 21 Aug 16:12:04 16:19:58 40° 85° (E) 16:27:51 435.215
MOZHAYETS 4 21 Aug 16:20:52 16:24:46 26° 94° (E) 16:28:37
DX 1 21 Aug 16:22:09 16:25:42 25° 296° (WNW) 16:29:14 434.975-435.025
ISS 21 Aug 16:32:23 16:35:40 88° 27° (NNE) 16:38:56 437.550
nSIGHT-1 21 Aug 16:39:52 16:43:09 79° 207° (SSW) 16:46:22 .
BEESAT 21 Aug 16:42:43 16:47:20 47° 100° (E) 16:51:55 436.000
AO-7 21 Aug 16:44:10 16:52:24 60° 256° (WSW) 17:00:42 .
RS-15 21 Aug 16:47:24 16:58:13 33° 356° (N) 17:08:48 29.354- 29.394
Tancredo 1 21 Aug 16:48:25 16:50:39 20° 221° (SW) 16:52:52 437.200
ITAMSAT 1 21 Aug 16:58:35 17:03:31 43° 261° (W) 17:08:28 435.822/435.867
ITUPSAT 1 21 Aug 17:17:29 17:22:17 85° 285° (WNW) 17:27:05 437.325
CUTE-I 21 Aug 17:35:14 17:38:41 18° 57° (ENE) 17:42:06 437.470
HO-68 21 Aug 17:38:15 17:41:22 13° 43° (NE) 17:44:28 435.675
DOVE 4 21 Aug 17:51:35 17:56:45 57° 72° (ENE) 18:01:47 437.250
MOZHAYETS 4 21 Aug 17:57:44 18:02:00 38° 291° (WNW) 18:06:16
KKS-1 21 Aug 18:03:26 18:07:10 26° 95° (E) 18:10:51 437.445
LilacSat-2 21 Aug 18:03:57 18:06:58 23° 67° (ENE) 18:10:01 437.200
XW-2D 21 Aug 18:07:05 18:10:09 24° 67° (ENE) 18:13:14 145.860 - 145.880
YUBILEINY 21 Aug 18:08:01 18:16:32 53° 287° (WNW) 18:25:05 435.215
ISS 21 Aug 18:09:36 18:11:46 16° 224° (SW) 18:13:55 437.550
NUDT-PHONESAT 21 Aug 18:10:41 18:13:19 19° 65° (ENE) 18:15:58 437.300
nSIGHT-1 21 Aug 18:17:22 18:19:03 13° 226° (SW) 18:20:44 .
XW-2B 21 Aug 18:17:52 18:21:11 30° 69° (ENE) 18:24:31 145.730 - 145.750
CUBESAT XI-V 21 Aug 18:19:14 18:23:59 83° 104° (ESE) 18:28:42 437.345
BEESAT 21 Aug 18:21:04 18:24:50 24° 297° (WNW) 18:28:35 436.000
XW-2C 21 Aug 18:36:36 18:40:14 49° 73° (ENE) 18:43:54 145.795 - 145.815
STARS 21 Aug 18:39:44 18:43:24 26° 95° (E) 18:47:02 437.465
AO-7 21 Aug 18:44:15 18:46:57 12° 277° (W) 18:49:39 .
XW-2F 21 Aug 18:47:59 18:51:41 64° 74° (ENE) 18:55:26 145.980 - 146.000
ITUPSAT 1 21 Aug 18:57:16 18:59:22 13° 304° (NW) 19:01:28 437.325
RS-15 21 Aug 19:03:06 19:14:43 45° 30° (NNE) 19:25:49 29.354- 29.394
KAITUO 1B 21 Aug 19:11:42 19:15:25 83° 256° (WSW) 19:19:11 145.475/437.950
CUTE-I 21 Aug 19:12:42 19:18:04 82° 256° (WSW) 19:23:28 437.470
O/OREOS (USA 219) 21 Aug 19:15:11 19:19:11 30° 55° (NE) 19:23:12 437.305
HO-68 21 Aug 19:20:40 19:27:33 53° 65° (ENE) 19:34:28 435.675
AAUSAT CUBESAT 2 21 Aug 19:24:49 19:26:13 11° 59° (ENE) 19:27:36 437.432
CUTE 1.7 + AOD 2 21 Aug 19:28:20 19:32:14 37° 69° (ENE) 19:36:10 437.475
DOVE 4 21 Aug 19:30:44 19:34:43 22° 269° (W) 19:38:39 437.250
LilacSat-2 21 Aug 19:37:46 19:41:07 29° 264° (W) 19:44:30 437.200
KKS-1 21 Aug 19:39:44 19:43:48 35° 292° (WNW) 19:47:49 437.445
UWE-3 21 Aug 19:40:39 19:43:22 17° 63° (ENE) 19:46:04 435.000/436.395/437.385
XW-2D 21 Aug 19:40:57 19:44:13 28° 264° (W) 19:47:32 145.860 - 145.880
NUDT-PHONESAT 21 Aug 19:43:35 19:46:58 35° 263° (W) 19:50:24 437.300
CUBEBUG 2 21 Aug 19:48:32 19:52:19 32° 69° (ENE) 19:56:04 437.445
XW-2B 21 Aug 19:52:23 19:55:23 22° 266° (W) 19:58:25 145.730 - 145.750
CUBESAT XI-V 21 Aug 19:58:12 20:00:42 14° 302° (WNW) 20:03:11 437.345
YUBILEINY 21 Aug 20:12:26 20:15:53 13° 313° (NW) 20:19:22 435.215
XW-2C 21 Aug 20:12:44 20:14:43 14° 270° (W) 20:16:43 145.795 - 145.815
SEEDS 21 Aug 20:14:06 20:18:17 71° 75° (ENE) 20:22:32 437.485
STARS 21 Aug 20:15:50 20:19:47 35° 293° (WNW) 20:23:44 437.465
ZACube-1 21 Aug 20:17:45 20:20:59 22° 65° (ENE) 20:24:13 437.345
XW-2F 21 Aug 20:25:18 20:26:14 11° 272° (W) 20:27:11 145.980 - 146.000
XW-2A 21 Aug 20:31:07 20:34:26 83° 257° (WSW) 20:37:48 145.665 - 145.685
AO-73 21 Aug 20:37:53 20:41:31 31° 68° (ENE) 20:45:11 145.935
STRAND 1 21 Aug 20:50:33 20:55:25 43° 98° (E) 21:00:15 437.568
O/OREOS (USA 219) 21 Aug 20:54:30 20:58:38 35° 254° (WSW) 21:02:46 437.305
AAUSAT CUBESAT 2 21 Aug 20:56:50 21:01:00 86° 254° (WSW) 21:05:14 437.432
CUTE-I 21 Aug 20:57:04 20:58:56 12° 274° (W) 21:00:50 437.470
CUTE 1.7 + AOD 2 21 Aug 21:04:48 21:08:11 23° 267° (W) 21:11:36 437.475
HO-68 21 Aug 21:09:08 21:15:32 35° 265° (W) 21:21:59 435.675
UWE-3 21 Aug 21:15:23 21:19:28 51° 260° (W) 21:23:32 435.000/436.395/437.385
RS-15 21 Aug 21:16:21 21:28:28 81° 238° (WSW) 21:39:56 29.354- 29.394
Oscar 11 21 Aug 21:21:07 21:25:24 68° 74° (ENE) 21:29:43 .
CUBEBUG 2 21 Aug 21:25:28 21:29:00 25° 266° (W) 21:32:30 437.445
Max Valier Satellite 21 Aug 21:30:34 21:32:46 15° 63° (ENE) 21:34:58 145.860
SEEDS 21 Aug 21:52:49 21:54:28 12° 272° (W) 21:56:09 437.485
ZACube-1 21 Aug 21:53:14 21:57:05 36° 263° (W) 22:00:56 437.345
DELFI C3 21 Aug 21:54:08 21:57:50 37° 70° (ENE) 22:01:34 145.870
AO-73 21 Aug 22:14:22 22:17:48 25° 266° (W) 22:21:15 145.935
EO-88 21 Aug 22:20:58 22:24:25 43° 72° (ENE) 22:27:53 145.990 - 145.960
STRAND 1 21 Aug 22:30:06 22:34:24 28° 297° (WNW) 22:38:43 437.568
FO-29 21 Aug 22:32:20 22:37:23 33° 94° (E) 22:42:04 435.910
UNISAT 6 21 Aug 22:47:08 22:50:17 19° 92° (E) 22:53:28 437.425
Oscar 11 21 Aug 22:59:59 23:02:01 13° 272° (W) 23:04:02 .
SO-50 21 Aug 23:01:34 23:04:01 14° 110° (ESE) 23:06:26 436.795
Max Valier Satellite 21 Aug 23:02:45 23:06:15 44° 261° (W) 23:09:47 145.860
TIGRISAT 21 Aug 23:21:17 23:25:20 39° 98° (E) 23:29:26 435.000
PCSat 21 Aug 23:28:08 23:33:20 48° 115° (ESE) 23:38:33 145.827
DELFI C3 21 Aug 23:29:44 23:32:44 20° 267° (W) 23:35:45 145.870
RS-15 21 Aug 23:30:34 23:38:54 23° 262° (W) 23:46:59 29.354- 29.394
LO-87 21 Aug 23:47:23 23:50:56 62° 75° (ENE) 23:54:29 145.935 - 145.965
EO-88 21 Aug 23:56:12 23:58:19 15° 269° (W) 00:00:26 145.990 - 145.960
AIST 2D 22 Aug 00:06:09 00:08:14 15° 91° (E) 00:10:19 435.315
ESTCUBE 1 22 Aug 00:06:55 00:11:24 69° 74° (ENE) 00:15:56 437.505/2401.250
PRISM 22 Aug 00:08:47 00:12:57 90° 132° (SE) 00:17:03 437.425
SPROUT 22 Aug 00:10:09 00:13:20 21° 64° (ENE) 00:16:31 437.525
VELOX 1 22 Aug 00:10:35 00:13:43 19° 62° (ENE) 00:16:51 145.980
FO-29 22 Aug 00:17:24 00:22:34 37° 296° (WNW) 00:27:21 435.910
UNISAT 6 22 Aug 00:23:07 00:27:13 45° 289° (WNW) 00:31:22 437.425
SO-50 22 Aug 00:39:21 00:43:52 79° 308° (NW) 00:48:24 436.795
NANOSAT C BR1 22 Aug 00:41:18 00:43:48 15° 90° (E) 00:46:18 145.865
POLYITAN 1 22 Aug 00:46:35 00:49:39 19° 92° (E) 00:52:42 437.675
M-CUBED/EXP-1 PRIME 22 Aug 00:57:42 01:01:36 30° 100° (E) 01:05:12 437.505
TIGRISAT 22 Aug 00:58:26 01:01:50 23° 295° (WNW) 01:05:17 435.000
QB50P2 22 Aug 01:01:19 01:05:03 29° 96° (E) 01:08:45 145.880/145.840
EO-79 22 Aug 01:01:41 01:05:19 27° 95° (E) 01:08:55 145.935-145.965
PCSat 22 Aug 01:12:01 01:16:55 34° 316° (NW) 01:21:51 145.827
NO-84 22 Aug 01:19:32 01:19:57 10° 129° (SE) 01:20:21 435.350 FM
UKube-1 22 Aug 01:20:49 01:23:57 20° 62° (ENE) 01:27:06 .
BUGSAT 1 22 Aug 01:27:51 01:29:09 11° 89° (E) 01:30:26 437.445
DUCHIFAT 1 22 Aug 01:30:05 01:34:06 43° 99° (E) 01:38:05 145.980
AIST 2D 22 Aug 01:38:16 01:41:38 40° 288° (WNW) 01:44:59 435.315
DX 1 22 Aug 01:43:30 01:47:42 46° 70° (ENE) 01:51:54 434.975-435.025
SPROUT 22 Aug 01:44:54 01:48:57 43° 261° (W) 01:53:02 437.525
VELOX 1 22 Aug 01:45:25 01:49:47 54° 260° (W) 01:54:11 145.980
ESTCUBE 1 22 Aug 01:46:20 01:48:42 14° 271° (W) 01:51:04 437.505/2401.250
PRISM 22 Aug 01:46:28 01:47:32 11° 303° (WNW) 01:48:37 437.425
50 SAT 22 Aug 01:57:24 02:00:49 88° 62° (ENE) 02:04:15 437.505
Oscar 19 22 Aug 02:07:46 02:11:08 17° 90° (E) 02:14:29 437.125/150
NANOSAT C BR1 22 Aug 02:15:45 02:19:51 55° 288° (WNW) 02:23:56 145.865
BEESAT 22 Aug 02:17:54 02:19:25 11° 55° (NE) 02:20:56 436.000
YUBILEINY 22 Aug 02:18:13 02:24:52 23° 59° (ENE) 02:31:27 435.215
POLYITAN 1 22 Aug 02:21:38 02:25:38 43° 290° (WNW) 02:29:38 437.675
SO-50 22 Aug 02:21:59 02:25:03 18° 329° (NNW) 02:28:08 436.795
M-CUBED/EXP-1 PRIME 22 Aug 02:32:03 02:35:57 31° 300° (WNW) 02:39:37 437.505
QB50P2 22 Aug 02:37:09 02:40:47 28° 293° (WNW) 02:44:24 145.880/145.840
EO-79 22 Aug 02:37:22 02:41:03 30° 293° (WNW) 02:44:45 145.935-145.965
ITUPSAT 1 22 Aug 02:50:37 02:54:11 22° 62° (ENE) 02:57:46 437.325
NO-84 22 Aug 02:54:00 02:56:52 86° 320° (NW) 02:59:43 435.350 FM
UKube-1 22 Aug 02:55:28 02:59:39 48° 260° (W) 03:03:52 .
PCSat 22 Aug 03:00:18 03:02:04 11° 340° (NNW) 03:03:50 145.827
BUGSAT 1 22 Aug 03:00:57 03:04:58 69° 286° (WNW) 03:08:58 437.445
DUCHIFAT 1 22 Aug 03:06:24 03:09:29 20° 296° (WNW) 03:12:35 145.980
DX 1 22 Aug 03:20:55 03:24:06 20° 267° (W) 03:27:19 434.975-435.025
MOZHAYETS 4 22 Aug 03:25:19 03:29:24 34° 68° (ENE) 03:33:33
Gurwin Techsat 1B 22 Aug 03:29:14 03:34:30 58° 101° (E) 03:39:44 435.225
Oscar 19 22 Aug 03:45:46 03:50:59 70° 287° (WNW) 03:56:09 437.125/150
CUBESAT XI-V 22 Aug 03:50:07 03:52:51 16° 59° (ENE) 03:55:34 437.345
BEESAT 22 Aug 03:51:38 03:56:22 76° 73° (ENE) 04:01:08 436.000
YUBILEINY 22 Aug 04:14:11 04:22:58 89° 257° (WSW) 04:31:40 435.215
ITUPSAT 1 22 Aug 04:27:02 04:31:40 52° 259° (W) 04:36:20 437.325
NO-84 22 Aug 04:32:22 04:34:35 20° 346° (NNW) 04:36:49 435.350 FM
AO-7 22 Aug 04:42:28 04:50:13 40° 98° (E) 04:57:52 .
MOZHAYETS 4 22 Aug 05:02:42 05:06:36 28° 265° (W) 05:10:33
KKS-1 22 Aug 05:03:54 05:07:56 35° 68° (ENE) 05:12:00 437.445
ITAMSAT 1 22 Aug 05:08:03 05:13:08 52° 100° (E) 05:18:10 435.822/435.867
Gurwin Techsat 1B 22 Aug 05:09:56 05:14:03 23° 300° (WNW) 05:18:09 435.225
CUBESAT XI-V 22 Aug 05:24:57 05:29:37 75° 257° (WSW) 05:34:20 437.345
Oscar 19 22 Aug 05:27:25 05:29:22 12° 307° (NW) 05:31:20 437.125/150
BEESAT 3 22 Aug 05:32:04 05:35:30 28° 116° (ESE) 05:38:58 437.485
BEESAT 22 Aug 05:32:16 05:34:41 14° 271° (W) 05:37:07 436.000
STARS 22 Aug 05:38:44 05:42:42 34° 67° (ENE) 05:46:39 437.465
SO-50 22 Aug 05:48:44 05:50:05 11° 19° (NNE) 05:51:25 436.795
BEESAT 2 22 Aug 05:50:15 05:52:33 15° 111° (ESE) 05:54:52 435.950
DOVE 4 22 Aug 05:50:32 05:51:41 11° 85° (E) 05:52:49 437.250
AO-85 22 Aug 06:09:31 06:13:10 38° 120° (ESE) 06:16:50 145.980
NO-84 22 Aug 06:10:45 06:12:46 17° 8° (N) 06:14:50 435.350 FM
YUBILEINY 22 Aug 06:12:38 06:18:29 21° 284° (WNW) 06:24:21 435.215
PCSat 22 Aug 06:30:17 06:34:03 19° 33° (NNE) 06:37:48 145.827
STRAND 1 22 Aug 06:33:26 06:35:51 14° 55° (NE) 06:38:16 437.568
AO-7 22 Aug 06:35:10 06:43:12 54° 298° (WNW) 06:51:10 .
KKS-1 22 Aug 06:40:45 06:44:32 27° 265° (W) 06:48:21 437.445
ITAMSAT 1 22 Aug 06:48:10 06:52:16 24° 299° (WNW) 06:56:22 435.822/435.867
LilacSat-2 22 Aug 07:07:52 07:11:01 23° 94° (E) 07:14:08 437.200
BEESAT 3 22 Aug 07:09:13 07:12:58 37° 315° (NW) 07:16:45 437.485
XW-2D 22 Aug 07:10:16 07:13:25 23° 94° (E) 07:16:32 145.860 - 145.880
NUDT-PHONESAT 22 Aug 07:11:21 07:13:53 17° 92° (E) 07:16:26 437.300
STARS 22 Aug 07:15:18 07:19:03 27° 265° (W) 07:22:49 437.465
XW-2B 22 Aug 07:21:10 07:24:35 29° 96° (E) 07:27:59 145.730 - 145.750
DOVE 4 22 Aug 07:25:31 07:30:08 83° 282° (WNW) 07:34:27 437.250
BEESAT 2 22 Aug 07:25:49 07:29:48 65° 309° (NW) 07:33:52 435.950
CUTE-I 22 Aug 07:27:04 07:31:49 32° 95° (E) 07:36:31 437.470
SO-50 22 Aug 07:27:43 07:31:54 34° 42° (NE) 07:36:05 436.795
XW-2C 22 Aug 07:40:06 07:43:52 49° 100° (E) 07:47:36 145.795 - 145.815
NO-84 22 Aug 07:47:50 07:50:41 44° 28° (NNE) 07:53:41 435.350 FM
AO-85 22 Aug 07:50:19 07:53:39 26° 319° (NW) 07:57:02 145.980
XW-2F 22 Aug 07:51:00 07:54:50 63° 101° (E) 07:58:38 145.980 - 146.000
STRAND 1 22 Aug 08:09:07 08:14:14 81° 74° (ENE) 08:19:22 437.568
PCSat 22 Aug 08:12:58 08:18:25 73° 55° (NE) 08:23:49 145.827
KAITUO 1B 22 Aug 08:13:41 08:17:31 87° 291° (WNW) 08:21:19 145.475/437.950
AO-7 22 Aug 08:29:37 08:34:10 16° 321° (NW) 08:38:43 .
HO-68 22 Aug 08:32:32 08:39:16 42° 98° (E) 08:45:59 435.675
AAUSAT CUBESAT 2 22 Aug 08:37:44 08:39:32 12° 88° (E) 08:41:19 437.432
LilacSat-2 22 Aug 08:41:53 08:45:19 31° 291° (WNW) 08:48:45 437.200
XW-2D 22 Aug 08:44:14 08:47:37 30° 291° (WNW) 08:50:59 145.860 - 145.880
NUDT-PHONESAT 22 Aug 08:44:25 08:47:56 39° 289° (WNW) 08:51:26 437.300
CUTE 1.7 + AOD 2 22 Aug 08:45:31 08:49:43 49° 99° (E) 08:53:53 437.475
FO-29 22 Aug 08:46:43 08:52:40 28° 61° (ENE) 08:58:08 435.910
XW-2B 22 Aug 08:55:31 08:58:39 24° 293° (WNW) 09:01:46 145.730 - 145.750
UWE-3 22 Aug 09:01:55 09:05:23 24° 94° (E) 09:08:55 435.000/436.395/437.385
DOVE 4 22 Aug 09:05:39 09:06:57 11° 305° (NW) 09:08:16 437.250
BEESAT 2 22 Aug 09:06:12 09:08:20 14° 330° (NNW) 09:10:30 435.950
CUTE-I 22 Aug 09:07:00 09:11:56 39° 294° (WNW) 09:16:49 437.470
Oscar 11 22 Aug 09:08:07 09:08:54 10° 87° (E) 09:09:41 .
SO-50 22 Aug 09:08:09 09:12:24 39° 241° (WSW) 09:16:40 436.795
CUBEBUG 2 22 Aug 09:11:58 09:16:04 50° 99° (E) 09:20:14 437.445
XW-2C 22 Aug 09:15:20 09:17:40 16° 297° (WNW) 09:20:01 145.795 - 145.815
Tancredo 1 22 Aug 09:16:51 09:18:33 15° 137° (SE) 09:20:17 437.200
XW-2A 22 Aug 09:22:25 09:25:49 68° 102° (ESE) 09:29:13 145.665 - 145.685
NO-84 22 Aug 09:25:25 09:27:56 24° 225° (SW) 09:30:36 435.350 FM
XW-2F 22 Aug 09:26:42 09:28:28 13° 299° (WNW) 09:30:14 145.980 - 146.000
PRISM 22 Aug 09:28:24 09:29:46 11° 58° (ENE) 09:31:06 437.425
SEEDS 22 Aug 09:30:23 09:34:40 86° 289° (WNW) 09:38:55 437.485
O/OREOS (USA 219) 22 Aug 09:31:37 09:34:38 18° 101° (E) 09:37:39 437.305
ZACube-1 22 Aug 09:37:57 09:41:49 32° 96° (E) 09:45:44 437.345
RS-15 22 Aug 09:41:04 09:43:55 11° 89° (E) 09:46:45 29.354- 29.394
UNISAT 6 22 Aug 09:48:41 09:52:10 24° 65° (ENE) 09:55:38 437.425
STRAND 1 22 Aug 09:51:23 09:54:03 14° 272° (W) 09:56:44 437.568
PCSat 22 Aug 09:57:28 10:01:13 19° 254° (WSW) 10:04:57 145.827
AO-73 22 Aug 09:58:02 10:02:10 46° 99° (E) 10:06:22 145.935
AAUSAT CUBESAT 2 22 Aug 10:11:16 10:15:27 68° 285° (WNW) 10:19:35 437.432
M-CUBED/EXP-1 PRIME 22 Aug 10:14:43 10:15:47 11° 48° (NE) 10:16:51 437.505
HO-68 22 Aug 10:20:20 10:27:02 45° 297° (WNW) 10:33:44 435.675
CUTE 1.7 + AOD 2 22 Aug 10:22:10 10:25:11 19° 297° (WNW) 10:28:12 437.475
TIGRISAT 22 Aug 10:22:33 10:26:41 47° 71° (ENE) 10:30:47 435.000
FO-29 22 Aug 10:29:47 10:37:17 70° 258° (WSW) 10:44:02 435.910
Max Valier Satellite 22 Aug 10:30:52 10:32:45 13° 90° (E) 10:34:37 145.860
UWE-3 22 Aug 10:38:03 10:41:55 35° 291° (WNW) 10:45:52 435.000/436.395/437.385
Oscar 11 22 Aug 10:41:15 10:45:39 85° 283° (WNW) 10:50:00 .
CUBEBUG 2 22 Aug 10:49:29 10:52:22 18° 297° (WNW) 10:55:16 437.445
ISS 22 Aug 10:50:17 10:53:15 31° 142° (SE) 10:56:12 437.550
Tancredo 1 22 Aug 10:50:28 10:53:23 86° 340° (NNW) 10:56:18 437.200
nSIGHT-1 22 Aug 10:56:27 10:59:30 37° 144° (SE) 11:02:33 .
PRISM 22 Aug 11:00:12 11:04:22 88° 248° (WSW) 11:08:34 437.425
DELFI C3 22 Aug 11:02:33 11:06:21 40° 98° (E) 11:10:05 145.870
SEEDS 22 Aug 11:08:33 11:09:38 11° 302° (WNW) 11:10:43 437.485
O/OREOS (USA 219) 22 Aug 11:09:14 11:13:36 53° 299° (WNW) 11:18:02 437.305
ZACube-1 22 Aug 11:14:23 11:18:01 28° 293° (WNW) 11:21:42 437.345
EO-88 22 Aug 11:20:11 11:23:38 37° 98° (E) 11:27:04 145.990 - 145.960
UNISAT 6 22 Aug 11:24:45 11:28:44 36° 263° (W) 11:32:42 437.425
AO-73 22 Aug 11:34:59 11:38:07 20° 296° (WNW) 11:41:18 145.935
NANOSAT C BR1 22 Aug 11:36:07 11:38:54 18° 62° (ENE) 11:41:42 145.865
RS-15 22 Aug 11:41:36 11:53:12 53° 112° (ESE) 12:04:55 29.354- 29.394
POLYITAN 1 22 Aug 11:41:51 11:45:04 22° 64° (ENE) 11:48:17 437.675
M-CUBED/EXP-1 PRIME 22 Aug 11:44:44 11:49:15 62° 67° (ENE) 11:53:53 437.505
QB50P2 22 Aug 11:56:27 12:00:11 32° 68° (ENE) 12:03:57 145.880/145.840
EO-79 22 Aug 11:56:39 12:00:19 30° 67° (ENE) 12:03:59 145.935-145.965
ESTCUBE 1 22 Aug 11:58:25 12:00:11 12° 88° (E) 12:01:56 437.505/2401.250
TIGRISAT 22 Aug 12:00:41 12:03:38 18° 268° (W) 12:06:35 435.000
Max Valier Satellite 22 Aug 12:03:16 12:06:52 49° 287° (WNW) 12:10:27 145.860
BEESAT 3 22 Aug 12:09:49 12:10:51 11° 25° (NNE) 12:11:54 437.485
HO-68 22 Aug 12:11:07 12:13:01 11° 319° (NW) 12:14:54 435.675
AIST 2D 22 Aug 12:14:39 12:18:08 76° 258° (WSW) 12:21:40 435.315
Oscar 11 22 Aug 12:19:47 12:21:03 11° 302° (WNW) 12:22:19 .
FO-29 22 Aug 12:19:50 12:23:15 14° 275° (W) 12:26:33 435.910
BUGSAT 1 22 Aug 12:20:11 12:22:08 13° 60° (ENE) 12:24:04 437.445
DUCHIFAT 1 22 Aug 12:24:16 12:28:15 45° 71° (ENE) 12:32:14 145.980
Tancredo 1 22 Aug 12:26:08 12:28:48 31° 353° (N) 12:31:27 437.200
ISS 22 Aug 12:26:23 12:29:37 55° 341° (NNW) 12:32:51 437.550
nSIGHT-1 22 Aug 12:32:39 12:35:50 50° 342° (NNW) 12:39:02 .
DELFI C3 22 Aug 12:37:57 12:40:50 19° 296° (WNW) 12:43:42 145.870
LO-87 22 Aug 12:44:41 12:48:08 50° 99° (E) 12:51:35 145.935 - 145.965
EO-88 22 Aug 12:54:30 12:57:03 18° 295° (WNW) 12:59:35 145.990 - 145.960
AO-85 22 Aug 12:57:31 13:00:15 17° 34° (NNE) 13:03:07 145.980
NANOSAT C BR1 22 Aug 13:10:09 13:14:14 51° 260° (W) 13:18:21 145.865
Gurwin Techsat 1B 22 Aug 13:15:23 13:19:09 20° 59° (ENE) 13:22:55 435.225
POLYITAN 1 22 Aug 13:16:40 13:20:37 40° 262° (W) 13:24:35 437.675
M-CUBED/EXP-1 PRIME 22 Aug 13:20:56 13:24:00 18° 264° (W) 13:27:10 437.505
Oscar 19 22 Aug 13:26:56 13:31:31 34° 65° (ENE) 13:36:09 437.125/150
SPROUT 22 Aug 13:27:41 13:31:12 25° 94° (E) 13:34:42 437.525
EO-79 22 Aug 13:32:25 13:36:03 28° 265° (W) 13:39:41 145.935-145.965
QB50P2 22 Aug 13:32:29 13:36:00 26° 265° (W) 13:39:33 145.880/145.840
VELOX 1 22 Aug 13:32:53 13:36:24 23° 93° (E) 13:39:53 145.980
ESTCUBE 1 22 Aug 13:33:00 13:37:34 81° 285° (WNW) 13:42:06 437.505/2401.250
BEESAT 3 22 Aug 13:45:36 13:49:28 43° 47° (NE) 13:53:15 437.485
BUGSAT 1 22 Aug 13:52:55 13:56:59 69° 257° (WSW) 14:01:02 437.445
RS-15 22 Aug 13:53:30 14:05:41 61° 318° (NW) 14:17:52 29.354- 29.394
AO-7 22 Aug 13:55:29 14:01:06 20° 44° (NE) 14:06:43 .
DUCHIFAT 1 22 Aug 14:01:15 14:04:08 18° 268° (W) 14:07:03 145.980
Tancredo 1 22 Aug 14:01:40 14:04:24 37° 13° (NNE) 14:07:09 437.200
BEESAT 2 22 Aug 14:03:27 14:06:58 27° 41° (NE) 14:10:26 435.950
ISS 22 Aug 14:03:28 14:06:30 33° 1° (N) 14:09:31 437.550
nSIGHT-1 22 Aug 14:09:38 14:12:39 33° 3° (N) 14:15:39 .
LO-87 22 Aug 14:19:29 14:21:09 13° 297° (WNW) 14:22:50 145.935 - 145.965
AO-85 22 Aug 14:36:59 14:41:15 83° 53° (NE) 14:45:50 145.980
UKube-1 22 Aug 14:39:53 14:43:15 22° 94° (E) 14:46:35 .
50 SAT 22 Aug 14:48:34 14:51:54 55° 101° (ESE) 14:55:11 437.505
ITAMSAT 1 22 Aug 14:51:49 14:55:11 18° 57° (ENE) 14:58:34 435.822/435.867
Gurwin Techsat 1B 22 Aug 14:53:16 14:58:34 70° 258° (WSW) 15:03:54 435.225
SPROUT 22 Aug 15:03:19 15:07:10 34° 292° (WNW) 15:11:00 437.525
DX 1 22 Aug 15:04:33 15:08:52 57° 102° (ESE) 15:13:08 434.975-435.025
Oscar 19 22 Aug 15:06:03 15:10:47 36° 263° (W) 15:15:33 437.125/150
VELOX 1 22 Aug 15:08:51 15:12:59 40° 291° (WNW) 15:17:06 145.980
ESTCUBE 1 22 Aug 15:12:11 15:13:36 11° 304° (WNW) 15:15:00 437.505/2401.250
BEESAT 3 22 Aug 15:23:39 15:26:48 22° 246° (WSW) 15:29:52 437.485
YUBILEINY 22 Aug 15:24:50 15:31:07 23° 77° (ENE) 15:37:22 435.215
Tancredo 1 22 Aug 15:36:50 15:39:40 51° 212° (SSW) 15:42:29 437.200
ISS 22 Aug 15:40:07 15:43:22 59° 20° (NNE) 15:46:36 437.550
BEESAT 2 22 Aug 15:41:00 15:44:51 42° 240° (WSW) 15:48:38 435.950
AO-7 22 Aug 15:44:11 15:52:28 70° 66° (ENE) 16:00:47 .
nSIGHT-1 22 Aug 15:46:08 15:49:23 66° 22° (NNE) 15:52:36 .
BEESAT 22 Aug 15:50:03 15:52:49 15° 90° (E) 15:55:35 436.000
